{"data":{"norad_id":58096,"epoch":"2026-05-24T22:10:15.900960Z","epoch_age_seconds":81614,"freshness":"FRESH","line1":"1 58096U 23160X   26144.92379515  .00000953  00000+0  44139-4 0  9999","line2":"2 58096  43.0026   7.4446 0001268 271.1613  88.9093 15.27575287144609","mean_motion":15.27575287,"eccentricity":0.0001268,"inclination_deg":43.0026,"raan_deg":7.4446,"arg_perigee_deg":271.1613,"mean_anomaly_deg":88.9093,"bstar":4.4139e-5,"rev_number":14460,"period_min":94.267039553122,"perigee_km":482.19320830699,"apogee_km":483.93320867987,"semimajor_km":6861.2002084934,"source":"CELESTRAK","updated_at":"2026-05-25T13:38:18.525592Z"}}